Regional Weather Roundup
Issued by NWS

Home | Current Version | Previous Version | Graphics & Text | Print | Product List | Glossary On
Versions: 1 2 3 4 5 6 7 8 9 10 11 12 13 14 15 16 17 18 19 20 21 22 23 24 25 26 27 28 29 30 31 32 33 34 35 36 37 38 39 40 41 42 43 44 45 46 47 48 49 50
000
ASUS43 KOAX 100402
RWRNE

WEATHER ROUNDUP FOR NEBRASKA
NATIONAL WEATHER SERVICE OMAHA NE
1100 PM CDT WED JUL 09 2014

NOTES: SATELLITE DATA IS BEING USED TO AUGMENT CLOUD COVER ABOVE
       12000 FEET.
       "FAIR" INDICATES FEW OR NO CLOUDS BELOW 12,000 FEET WITH NO
       SIGNIFICANT WEATHER AND/OR OBSTRUCTIONS TO VISIBILITY.

  * THESE STATIONS DO NOT REPORT WEATHER SUCH AS RAIN...SNOW OR FOG.

NEZ001>004-019>022-054>056-100500-
NEBRASKA PANHANDLE

CITY           SKY/WX    TMP DP  RH WIND       PRES   REMARKS
SCOTTSBLUFF    CLEAR     73  62  68 E17       29.93R
ALLIANCE       CLEAR     67  60  78 E13       29.96R
CHADRON        PTCLDY    69  60  73 E8        29.95R
KIMBALL        PTCLDY    69  56  65 CALM      29.99R
SIDNEY         CLEAR     69  57  65 S5        29.96S
$$

NEZ057>060-069>072-079>082-100500-
SOUTHWEST NEBRASKA

CITY           SKY/WX    TMP DP  RH WIND       PRES   REMARKS
NORTH PLATTE   LGT RAIN  65  62  90 E20       29.98R
IMPERIAL       PTCLDY    77  63  61 SE15      29.93R
LEXINGTON      DRIZZLE   67  62  84 E15G23    30.00S
MCCOOK         MOCLDY    79  59  50 E16       29.95R
OGALLALA       PTCLDY    77  62  59 S13G20    29.92R
$$

NEZ005>010-023>029-035>040-094-100500-
NORTH CENTRAL NEBRASKA

CITY           SKY/WX    TMP DP  RH WIND       PRES   REMARKS
VALENTINE      PTCLDY    62  59  90 E5        30.00R
AINSWORTH      MOCLDY    62  60  94 SE7       30.01R
BROKEN BOW     TSTM      65  62  90 SE25G38   29.98F FOG
O`NEILL        MOCLDY    62  58  88 SE3       30.01F
ORD            CLOUDY    65  61  87 SE8       30.01R
THEDFORD       PTCLDY    66  60  80 E8        30.01R
$$

NEZ041-046>049-061>064-073>077-083>087-100500-
SOUTH CENTRAL NEBRASKA

CITY           SKY/WX    TMP DP  RH WIND       PRES   REMARKS
GRAND ISLAND   LGT RAIN  66  59  78 SE23G29   30.01F
AURORA         LGT RAIN  65  63  93 S17G25    30.02F
HASTINGS       CLOUDY    66  60  81 E22G35    30.02F
HEBRON         RAIN      69  65  84 N9        30.12R
HOLDREGE       CLOUDY    65  61  85 SE21G28   29.99F
KEARNEY *      CLOUDY    64  61  88 SE20G28   30.03R
YORK           LGT RAIN  64  64 100 S23G33    29.98F
$$

NEZ011>018-030>034-042>045-100500-
NORTHEAST NEBRASKA

CITY           SKY/WX    TMP DP  RH WIND       PRES   REMARKS
NORFOLK        MOCLDY    65  59  81 S9        30.02R
ALBION         LGT RAIN  63  61  95 E7        30.01S
BLAIR          CLOUDY    67  63  86 S5        30.03R
FREMONT        CLOUDY    70  62  75 E3        30.02R
TEKAMAH        MOCLDY    67  63  87 SE6       30.01R
WAYNE          PTCLDY    62  60  91 CALM      30.02R
$$

NEZ050>053-065>068-078-088>093-100500-
SOUTHEAST NEBRASKA

CITY           SKY/WX    TMP DP  RH WIND       PRES   REMARKS
LINCOLN        CLOUDY    69  63  81 S9        30.04S
OMAHA EPPLEY   CLOUDY    73  61  65 S8        30.02S
BEATRICE       LGT RAIN  64  62  91 W8G16     30.11R
FALLS CITY     CLOUDY    71  63  75 S9        30.04S
NEBRASKA CITY  CLOUDY    68  65  90 S5        30.04S
PLATTSMOUTH    CLOUDY    70  61  74 S6        30.04R
$$

NEZ044-045-051>053-067-100500-
OMAHA AREA

CITY           SKY/WX    TMP DP  RH WIND       PRES   REMARKS
OMAHA EPPLEY   CLOUDY    73  61  65 S8        30.02S
BLAIR          CLOUDY    67  63  86 S5        30.03R
FREMONT        CLOUDY    70  62  75 E3        30.02R
MILLARD        CLOUDY    71  62  73 SE5       30.02S
OFFUTT AFB     CLOUDY    70  69  95 SE6       30.02S
PLATTSMOUTH    CLOUDY    70  61  74 S6        30.04R
WAHOO          FAIR      68  65  90 S5        30.02R
$$


USA.gov is the U.S. government's official web portal to all federal, state and local government web resources and services.